QPF
0.01 0.01 0.00 0.00 0.00 0.00 0.00 0.00 0.00 0.00 0.00 0.00 0.00 0.00 0.00 0.00 0.00 0.00 0.00 0.00 0.00 0.00 0.00 0.00 0.00 0.00 0.00 0.01 0.00 0.00 0.00 0.00 0.00 0.00 0.00 0.00 0.00 0.00 0.00 0.00 0.00 0.00 0.00 0.00 0.00 0.00 0.00
0.00 0.00 0.00 0.00 0.00 0.00 0.00 0.00 0.00 0.00 0.00 0.00 0.00 0.00 0.00 0.00 0.00 0.00 0.00 0.00 0.00 0.00 0.00 0.00 0.00 0.00 0.01 0.00 0.00 0.00 0.00 0.00 0.00 0.00 0.00 0.00 0.00 0.00 0.00 0.00 0.00 0.00 0.00 0.00 0.00 0.00 0.00
0.00 0.00 0.00 0.00 0.00 0.00 0.00 0.00 0.00 0.00 0.00 0.00 0.00 0.00 0.00 0.00 0.00 0.00 0.00 0.00 0.00 0.00 0.00 0.00 0.00 0.00 0.00 0.00 0.00 0.00 0.00 0.00 0.00 0.00 0.00 0.00 0.00 0.00 0.00 0.00 0.00 0.00 0.00 0.00 0.00 0.00 0.00
0.00 0.00 0.00 0.00 0.00 0.00 0.00 0.00 0.00 0.00 0.00 0.00 0.00 0.00 0.00 0.00 0.00 0.00 0.00 0.00 0.00 0.00 0.00 0.00 0.00 0.00 0.00 0.00 0.00 0.00 0.00 0.00 0.00 0.00 0.00 0.00 0.00 0.00 0.00 0.00 0.00 0.00 0.00 0.00 0.00 0.00 0.00
0.00 0.00 0.00 0.00 0.00 0.00 0.00 0.00 0.00 0.00 0.00 0.00 0.00 0.00 0.00 0.00 0.00 0.00 0.00 0.00 0.00 0.00 0.00 0.00 0.00 0.00 0.00 0.00 0.00 0.00 0.00 0.00 0.00 0.00 0.00 0.00 0.00 0.01 0.01 0.01 0.00 0.00 0.00 0.00 0.00 0.00 0.00
0.00 0.00 0.00 0.00 0.00 0.00 0.00 0.00 0.00 0.00 0.00 0.00 0.00 0.00 0.00 0.00 0.00 0.00 0.00 0.00 0.00 0.00 0.00 0.01 0.01 0.01 0.00 0.01 0.00 0.00 0.00 0.00 0.00 0.00 0.01 0.01 0.01 0.01 0.01 0.00 0.00 0.00 0.00 0.00 0.00 0.00 0.00
0.00 0.00 0.00 0.00 0.00 0.00 0.00 0.00 0.00 0.00 0.00 0.00 0.00 0.00 0.00 0.00 0.00 0.00 0.00 0.00 0.01 0.01 0.02 0.00 0.00 0.00 0.00 0.00 0.00 0.00 0.00 0.00 0.01 0.01 0.01 0.00 0.00 0.00 0.00 0.00 0.00 0.00 0.00 0.00 0.00 0.00 0.00
0.00 0.00 0.00 0.00 0.00 0.00 0.00 0.00 0.00 0.00 0.00 0.00 0.00 0.00 0.00 0.00 0.00 0.00 0.00 0.01 0.01 0.01 0.00 0.00 0.00 0.00 0.00 0.00 0.01 0.01 0.00 0.01 0.01 0.01 0.00 0.00 0.00 0.00 0.00 0.00 0.00 0.00 0.00 0.00 0.00 0.00 0.00
0.00 0.00 0.00 0.00 0.00 0.00 0.00 0.00 0.00 0.00 0.00 0.00 0.00 0.00 0.00 0.00 0.00 0.00 0.01 0.01 0.00 0.00 0.01 0.00 0.00 0.00 0.00 0.03 0.02 0.02 0.01 0.01 0.01 0.00 0.00 0.00 0.00 0.00 0.00 0.00 0.00 0.00 0.00 0.00 0.00 0.00 0.00
0.00 0.00 0.00 0.00 0.00 0.00 0.00 0.00 0.00 0.00 0.00 0.00 0.00 0.00 0.00 0.00 0.00 0.00 0.01 0.00 0.00 0.00 0.01 0.00 0.00 0.00 0.00 0.01 0.03 0.00 0.06 0.06 0.03 0.01 0.01 0.00 0.00 0.01 0.01 0.00 0.02 0.01 0.00 0.00 0.00 0.01 0.00
0.00 0.00 0.00 0.00 0.00 0.00 0.00 0.00 0.00 0.00 0.00 0.00 0.00 0.00 0.00 0.00 0.00 0.01 0.01 0.00 0.00 0.01 0.03 0.01 0.00 0.00 0.00 0.00 0.00 0.00 0.01 0.07 0.05 0.04 0.05 0.01 0.00 0.02 0.01 0.00 0.03 0.01 0.00 0.01 0.01 0.02 0.01
0.00 0.00 0.00 0.00 0.00 0.00 0.00 0.00 0.00 0.00 0.00 0.00 0.00 0.00 0.00 0.00 0.00 0.00 0.00 0.00 0.01 0.01 0.02 0.02 0.00 0.00 0.02 0.03 0.00 0.00 0.02 0.09 0.07 0.09 0.10 0.03 0.01 0.03 0.02 0.01 0.01 0.01 0.02 0.02 0.04 0.04 0.02
0.00 0.00 0.00 0.00 0.00 0.00 0.00 0.00 0.00 0.00 0.00 0.00 0.00 0.00 0.00 0.00 0.00 0.00 0.00 0.01 0.03 0.01 0.02 0.04 0.04 0.05 0.04 0.05 0.06 0.05 0.07 0.10 0.09 0.06 0.06 0.03 0.01 0.00 0.02 0.04 0.04 0.05 0.05 0.05 0.03 0.02 0.01
0.00 0.00 0.00 0.00 0.00 0.00 0.00 0.00 0.00 0.00 0.00 0.00 0.00 0.00 0.01 0.01 0.00 0.00 0.00 0.02 0.02 0.00 0.00 0.01 0.01 0.01 0.01 0.05 0.07 0.08 0.11 0.10 0.10 0.09 0.07 0.05 0.02 0.01 0.01 0.03 0.02 0.02 0.03 0.03 0.02 0.03 0.02
0.00 0.00 0.00 0.00 0.00 0.00 0.00 0.00 0.00 0.00 0.00 0.00 0.00 0.00 0.01 0.01 0.00 0.00 0.00 0.02 0.00 0.01 0.01 0.00 0.00 0.01 0.01 0.03 0.02 0.02 0.05 0.07 0.08 0.07 0.05 0.03 0.02 0.01 0.01 0.02 0.04 0.05 0.06 0.02 0.05 0.02 0.03
0.00 0.00 0.00 0.00 0.00 0.00 0.00 0.00 0.00 0.00 0.00 0.00 0.00 0.00 0.00 0.00 0.00 0.01 0.01 0.00 0.00 0.00 0.01 0.01 0.02 0.02 0.01 0.01 0.01 0.01 0.01 0.02 0.02 0.00 0.01 0.01 0.01 0.01 0.00 0.01 0.02 0.04 0.05 0.06 0.04 0.02 0.02
0.00 0.00 0.00 0.00 0.00 0.00 0.00 0.00 0.00 0.00 0.00 0.00 0.01 0.02 0.03 0.00 0.04 0.06 0.03 0.01 0.00 0.00 0.00 0.00 0.02 0.02 0.00 0.00 0.00 0.01 0.02 0.01 0.00 0.00 0.00 0.00 0.00 0.01 0.01 0.00 0.00 0.02 0.02 0.02 0.02 0.01 0.01
0.00 0.00 0.00 0.00 0.00 0.00 0.00 0.00 0.00 0.00 0.00 0.01 0.03 0.04 0.05 0.01 0.07 0.06 0.03 0.02 0.00 0.00 0.00 0.00 0.02 0.01 0.00 0.01 0.01 0.02 0.04 0.01 0.01 0.00 0.01 0.01 0.01 0.01 0.01 0.00 0.00 0.00 0.00 0.00 0.01 0.00 0.00
0.00 0.00 0.00 0.00 0.00 0.00 0.00 0.00 0.00 0.00 0.00 0.03 0.03 0.02 0.05 0.04 0.04 0.05 0.05 0.02 0.01 0.01 0.00 0.01 0.01 0.02 0.03 0.04 0.03 0.03 0.03 0.01 0.00 0.01 0.01 0.01 0.02 0.02 0.01 0.01 0.01 0.01 0.01 0.00 0.00 0.00 0.01
0.00 0.00 0.00 0.00 0.00 0.00 0.00 0.00 0.00 0.00 0.00 0.02 0.02 0.02 0.05 0.05 0.03 0.03 0.04 0.03 0.02 0.01 0.02 0.03 0.03 0.01 0.01 0.02 0.04 0.03 0.02 0.01 0.00 0.00 0.00 0.01 0.02 0.01 0.01 0.00 0.01 0.01 0.00 0.01 0.01 0.01 0.01
0.00 0.00 0.00 0.00 0.00 0.00 0.00 0.00 0.00 0.01 0.00 0.02 0.02 0.02 0.04 0.04 0.05 0.06 0.06 0.04 0.03 0.03 0.02 0.02 0.02 0.03 0.04 0.02 0.02 0.02 0.02 0.01 0.00 0.00 0.01 0.01 0.01 0.01 0.00 0.00 0.00 0.00 0.00 0.00 0.00 0.01 0.00
0.00 0.00 0.00 0.00 0.00 0.00 0.00 0.00 0.00 0.00 0.00 0.05 0.03 0.03 0.04 0.04 0.03 0.04 0.05 0.03 0.03 0.02 0.03 0.02 0.02 0.01 0.03 0.03 0.02 0.02 0.02 0.02 0.01 0.01 0.01 0.02 0.01 0.00 0.00 0.00 0.00 0.00 0.00 0.00 0.00 0.00 0.01
0.00 0.00 0.00 0.00 0.00 0.00 0.00 0.00 0.00 0.00 0.01 0.04 0.03 0.03 0.03 0.02 0.03 0.04 0.05 0.05 0.04 0.03 0.02 0.03 0.03 0.02 0.02 0.01 0.01 0.00 0.00 0.00 0.00 0.00 0.00 0.01 0.01 0.01 0.00 0.00 0.00 0.00 0.00 0.00 0.00 0.00 0.00
0.00 0.00 0.00 0.00 0.00 0.00 0.00 0.00 0.00 0.01 0.04 0.04 0.02 0.03 0.02 0.02 0.05 0.05 0.04 0.03 0.03 0.03 0.03 0.02 0.03 0.03 0.01 0.00 0.00 0.00 0.00 0.00 0.00 0.00 0.00 0.01 0.00 0.01 0.00 0.00 0.00 0.00 0.00 0.00 0.00 0.00 0.00
0.00 0.00 0.00 0.00 0.00 0.00 0.00 0.00 0.00 0.00 0.01 0.04 0.05 0.01 0.01 0.02 0.06 0.07 0.04 0.02 0.02 0.02 0.01 0.01 0.00 0.01 0.00 0.01 0.01 0.00 0.00 0.00 0.00 0.00 0.00 0.00 0.01 0.02 0.01 0.01 0.00 0.00 0.00 0.00 0.00 0.00 0.00
0.00 0.00 0.00 0.00 0.00 0.00 0.00 0.00 0.00 0.00 0.00 0.03 0.04 0.03 0.01 0.02 0.05 0.03 0.02 0.03 0.04 0.04 0.04 0.02 0.00 0.00 0.01 0.02 0.03 0.02 0.01 0.00 0.00 0.02 0.01 0.01 0.01 0.03 0.01 0.02 0.01 0.01 0.00 0.00 0.00 0.00 0.00
0.00 0.00 0.00 0.00 0.00 0.00 0.00 0.00 0.00 0.00 0.00 0.01 0.02 0.05 0.02 0.02 0.02 0.03 0.05 0.07 0.09 0.06 0.05 0.06 0.05 0.04 0.06 0.04 0.04 0.03 0.02 0.01 0.01 0.00 0.03 0.04 0.03 0.03 0.02 0.03 0.02 0.01 0.00 0.00 0.00 0.01 0.00
0.00 0.00 0.00 0.00 0.00 0.00 0.00 0.00 0.00 0.00 0.00 0.00 0.01 0.02 0.02 0.02 0.01 0.02 0.02 0.03 0.05 0.04 0.05 0.09 0.03 0.07 0.07 0.06 0.05 0.04 0.03 0.04 0.03 0.01 0.02 0.03 0.06 0.04 0.03 0.05 0.05 0.00 0.00 0.01 0.02 0.01 0.00
0.00 0.00 0.00 0.00 0.00 0.00 0.00 0.00 0.00 0.00 0.00 0.00 0.01 0.00 0.01 0.01 0.00 0.00 0.00 0.01 0.01 0.03 0.05 0.06 0.05 0.04 0.03 0.03 0.05 0.06 0.05 0.05 0.03 0.04 0.02 0.02 0.02 0.03 0.04 0.04 0.01 0.00 0.00 0.00 0.00 0.00 0.00
MSLP
1013.48 1013.53 1013.95 1013.97 1014.06 1014.14 1014.29 1014.21 1014.24 1014.32 1014.33 1014.13 1014.06 1013.96 1013.99 1013.83 1013.81 1013.57 1013.53 1013.55 1013.73 1013.62 1013.72 1013.68 1013.64 1014.10 1014.39 1012.93 1009.60 1008.30 1009.08 1009.40 1009.08 1008.52 1007.59 1007.00 1006.39 1006.01 1005.16 1004.42 1003.79 1003.05 1002.71 1002.33 1002.18 1001.98 1001.67
1013.62 1013.85 1014.02 1014.07 1014.40 1014.52 1014.46 1014.39 1014.52 1014.48 1014.65 1014.52 1014.28 1014.07 1013.97 1013.69 1013.37 1013.28 1013.17 1013.15 1013.05 1012.96 1013.23 1013.17 1013.17 1013.43 1013.26 1010.13 1009.01 1008.76 1008.43 1008.33 1008.30 1007.81 1007.15 1006.58 1006.28 1006.11 1005.58 1005.07 1004.51 1004.10 1003.27 1002.56 1002.32 1001.91 1001.45
1013.83 1013.93 1014.27 1014.33 1014.43 1014.49 1014.75 1014.77 1014.63 1014.63 1014.65 1014.59 1014.57 1014.38 1014.06 1014.14 1013.80 1013.69 1013.33 1012.93 1012.68 1012.60 1012.61 1012.73 1012.62 1012.62 1010.99 1006.35 1007.35 1007.42 1007.58 1007.34 1006.93 1006.86 1006.19 1005.99 1006.00 1006.09 1006.26 1005.66 1005.49 1005.20 1004.46 1003.57 1002.95 1002.47 1001.45
1014.22 1014.07 1014.57 1014.75 1014.77 1014.92 1015.00 1015.11 1014.85 1014.81 1014.80 1014.94 1014.67 1014.34 1014.45 1014.26 1013.74 1013.43 1013.32 1013.08 1012.63 1012.47 1012.25 1012.30 1012.08 1011.58 1008.07 1007.10 1007.60 1007.40 1007.15 1006.17 1006.30 1006.03 1005.80 1005.85 1005.73 1005.89 1006.51 1006.87 1006.54 1006.12 1005.43 1003.67 1003.10 1002.06 1001.00
1014.16 1014.51 1014.89 1014.91 1014.96 1014.87 1015.10 1015.55 1015.21 1014.92 1014.93 1014.94 1014.75 1014.62 1014.30 1014.27 1014.02 1013.47 1013.10 1012.76 1012.07 1011.79 1011.69 1011.67 1011.44 1010.44 1007.15 1005.44 1006.18 1005.68 1005.63 1005.27 1005.06 1005.48 1005.90 1006.04 1006.44 1006.24 1007.11 1006.99 1006.96 1005.94 1004.43 1002.91 1001.68 1001.08 999.66
1014.18 1014.70 1014.82 1014.82 1015.19 1015.13 1015.37 1015.44 1015.26 1015.16 1015.16 1014.88 1014.98 1014.78 1014.70 1014.07 1013.62 1013.39 1012.78 1012.46 1011.28 1011.38 1010.98 1010.97 1010.22 1009.64 1006.80 1004.84 1005.01 1004.50 1004.08 1004.27 1004.45 1004.94 1005.44 1005.70 1006.70 1006.28 1006.01 1006.08 1004.00 1004.69 1003.13 1001.64 999.50 999.22 997.76
1014.61 1014.61 1014.91 1015.14 1015.18 1014.92 1014.99 1014.97 1015.01 1015.21 1015.18 1015.21 1015.14 1014.72 1014.37 1013.97 1013.76 1013.47 1013.00 1011.99 1011.16 1010.79 1009.97 1008.18 1006.87 1005.60 1003.31 1003.49 1003.87 1003.88 1003.56 1003.93 1004.22 1004.60 1004.28 1005.06 1005.95 1002.69 1003.76 1003.92 1003.26 1002.77 1001.01 998.97 997.94 997.56 997.10
1014.73 1014.94 1015.16 1015.20 1015.38 1015.33 1015.21 1014.92 1014.97 1015.16 1015.23 1014.94 1014.66 1014.53 1014.26 1014.17 1013.69 1013.34 1013.12 1012.31 1011.80 1012.08 1009.43 1007.27 1005.61 1004.46 1003.30 1003.21 1002.67 1003.21 1003.99 1004.17 1003.45 1002.47 1003.60 1004.12 1002.23 1001.28 1002.94 1003.28 1003.04 1002.07 1000.79 997.88 997.91 998.12 997.85
1014.94 1015.11 1015.36 1015.50 1015.61 1015.62 1015.58 1015.23 1015.06 1015.22 1015.29 1015.07 1014.64 1014.33 1014.03 1013.84 1013.28 1012.89 1011.96 1011.92 1012.30 1011.87 1009.67 1005.52 1004.20 1002.96 1001.36 1002.78 1001.38 1001.94 1003.42 1002.60 1001.73 1001.84 1002.10 1001.22 997.39 1001.84 1001.28 1000.76 1000.79 1000.52 999.71 999.09 998.53 998.56 997.35
1014.92 1015.34 1015.27 1015.15 1015.33 1015.37 1015.39 1015.39 1015.36 1015.37 1014.90 1014.83 1014.59 1014.35 1013.95 1013.55 1012.97 1012.32 1012.05 1012.56 1012.22 1011.86 1008.66 1004.10 1001.75 999.92 999.70 1000.04 999.80 999.43 1000.65 1001.39 1001.41 1000.14 1000.13 1000.51 999.46 999.76 999.82 998.86 998.79 998.44 998.39 998.71 998.39 998.35 996.69
1015.24 1015.44 1015.67 1015.43 1015.41 1015.52 1015.44 1015.12 1015.13 1015.06 1015.27 1014.67 1014.61 1014.04 1013.98 1013.64 1012.61 1011.47 1011.48 1011.67 1012.25 1011.93 1006.83 1000.74 998.36 996.93 996.79 997.83 997.00 997.28 998.03 999.87 999.46 999.70 999.57 998.09 998.56 998.17 998.03 997.46 998.73 997.34 998.39 997.69 997.37 997.34 997.15
1015.19 1015.47 1015.78 1015.53 1015.61 1015.56 1015.45 1015.11 1015.06 1014.67 1015.28 1014.79 1014.50 1014.08 1013.91 1012.62 1012.19 1010.94 1011.19 1011.23 1011.43 1010.45 1003.53 999.73 997.36 996.49 996.77 996.44 996.74 996.60 996.47 997.72 997.99 998.73 998.45 997.42 997.00 996.52 996.31 996.63 996.60 996.81 997.65 997.31 997.48 997.71 996.13
1015.20 1015.18 1015.74 1015.78 1015.46 1015.43 1015.06 1014.94 1014.80 1014.91 1014.98 1014.53 1014.29 1013.98 1013.85 1012.75 1011.79 1011.25 1011.36 1010.74 1010.06 1006.89 1001.71 999.84 999.25 999.20 998.55 997.34 996.73 996.67 996.78 997.38 997.43 997.60 997.59 997.31 996.18 995.86 996.52 996.04 996.66 996.56 996.82 996.47 996.67 996.28 994.14
1014.86 1015.45 1015.52 1015.28 1015.47 1015.10 1014.93 1014.91 1014.57 1014.52 1014.54 1014.48 1014.20 1013.75 1012.62 1012.18 1011.51 1011.56 1011.32 1010.21 1008.41 1004.95 1002.96 1000.96 1001.00 1000.95 1000.19 999.66 998.19 997.86 997.53 997.45 997.94 997.65 997.53 996.65 995.65 994.94 994.96 995.12 995.28 995.96 996.19 994.75 994.99 994.56 993.62
1014.62 1015.13 1015.56 1015.23 1015.27 1014.97 1014.77 1014.70 1014.55 1014.44 1014.31 1014.10 1013.58 1012.24 1011.32 1010.97 1011.81 1011.57 1010.86 1009.57 1006.81 1005.14 1004.82 1003.64 1001.90 1000.66 1000.26 1000.65 1001.02 1000.54 999.30 999.04 998.70 1000.20 999.67 997.70 996.86 994.74 995.66 995.33 996.04 995.46 995.26 995.00 995.70 994.94 994.71
1015.27 1015.44 1015.44 1015.29 1015.00 1014.81 1014.73 1014.57 1014.23 1013.98 1013.71 1013.73 1012.80 1011.78 1010.55 1011.14 1011.40 1011.21 1010.49 1008.80 1007.05 1005.63 1004.99 1004.59 1004.29 1003.09 1002.45 1001.83 1002.29 1001.52 1001.50 1002.34 1001.87 1001.91 1002.32 1000.29 999.03 998.42 998.01 997.79 997.16 997.20 996.75 996.23 996.09 995.92 995.00
1015.64 1015.36 1015.10 1014.89 1014.98 1014.82 1014.56 1014.24 1014.01 1013.79 1013.59 1013.61 1012.68 1011.31 1010.89 1011.03 1011.46 1011.11 1009.75 1008.48 1007.12 1006.16 1005.63 1005.18 1004.81 1004.46 1003.77 1003.22 1002.85 1002.58 1002.06 1003.05 1003.07 1002.82 1002.54 1001.74 1000.25 999.85 999.36 998.89 998.69 998.81 997.90 998.08 996.99 996.94 996.29
1015.36 1014.97 1014.96 1014.91 1014.76 1014.53 1014.29 1014.05 1013.96 1013.85 1013.71 1013.71 1012.62 1011.30 1011.04 1011.02 1011.27 1010.61 1009.48 1008.32 1007.81 1006.44 1005.97 1005.19 1004.82 1004.71 1004.06 1003.78 1003.48 1003.10 1002.93 1003.17 1003.63 1003.24 1002.66 1001.88 1001.07 1000.43 999.31 999.75 999.95 1000.20 999.48 998.66 997.87 997.94 998.68
1015.16 1015.03 1014.90 1014.77 1014.46 1014.35 1014.20 1014.10 1014.01 1013.88 1013.81 1013.07 1012.29 1011.14 1011.09 1011.42 1010.61 1009.62 1008.76 1008.04 1007.25 1006.46 1005.67 1005.31 1004.87 1004.75 1004.47 1004.31 1003.94 1002.81 1003.34 1003.97 1003.45 1002.98 1003.23 1002.96 1001.44 1000.39 999.75 999.76 999.80 999.69 1000.01 999.33 999.15 998.91 999.32
1014.98 1014.86 1014.73 1014.44 1014.32 1014.15 1014.10 1013.99 1013.86 1013.82 1013.79 1013.45 1012.71 1011.44 1010.59 1011.09 1010.40 1009.81 1008.95 1007.99 1007.07 1006.44 1005.66 1005.88 1005.52 1004.90 1004.10 1003.78 1003.50 1003.22 1003.09 1003.64 1003.51 1002.92 1003.24 1003.08 1002.28 1001.34 1000.03 999.60 999.83 999.66 999.02 999.07 999.30 999.23 998.92
1014.73 1014.56 1014.54 1014.32 1014.33 1014.15 1014.08 1013.99 1013.88 1013.74 1013.74 1013.67 1013.38 1011.83 1010.69 1010.20 1009.54 1009.28 1008.90 1008.30 1007.28 1006.49 1006.20 1005.74 1005.83 1006.08 1005.62 1004.32 1003.47 1002.87 1002.78 1003.02 1002.42 1002.88 1002.78 1002.69 1001.98 1001.45 1000.76 1000.05 999.55 998.66 998.25 998.91 998.50 999.28 999.41
1014.60 1014.48 1014.42 1014.28 1014.24 1014.09 1014.10 1013.97 1013.88 1013.80 1013.79 1013.75 1013.14 1012.35 1011.03 1010.48 1009.69 1008.85 1008.27 1008.12 1007.33 1006.46 1006.20 1005.87 1005.55 1005.42 1005.79 1004.87 1004.13 1003.49 1003.05 1002.59 1002.20 1002.10 1002.37 1002.42 1001.85 1001.26 1000.56 999.37 998.12 997.28 997.45 997.36 997.89 998.55 998.80
1014.54 1014.46 1014.39 1014.27 1014.10 1014.02 1013.99 1013.89 1013.85 1013.79 1013.82 1012.93 1012.64 1012.55 1012.48 1010.69 1009.43 1008.92 1007.88 1007.17 1006.88 1006.44 1006.30 1005.93 1005.62 1005.71 1005.55 1005.17 1004.54 1003.63 1003.33 1002.95 1002.62 1002.32 1002.16 1002.18 1001.73 1001.31 999.93 998.97 998.32 998.11 997.39 997.17 997.02 996.98 997.04
1014.65 1014.58 1014.36 1014.19 1014.12 1014.09 1014.02 1013.86 1013.66 1013.49 1013.42 1012.97 1012.64 1012.81 1012.59 1010.56 1009.29 1008.56 1007.66 1006.97 1006.47 1006.25 1006.09 1005.73 1005.53 1005.42 1005.03 1005.24 1004.16 1003.50 1002.90 1002.36 1002.03 1001.73 1001.65 1002.04 1002.36 1001.61 1000.35 999.43 998.33 996.97 996.96 996.67 996.66 996.58 996.25
1014.76 1014.60 1014.37 1014.29 1014.21 1014.14 1014.03 1013.82 1013.50 1013.27 1012.97 1012.50 1012.64 1013.06 1012.73 1010.75 1009.20 1008.02 1007.62 1007.16 1006.60 1006.39 1006.04 1005.27 1004.97 1004.85 1004.97 1004.83 1004.46 1003.23 1002.09 1001.36 1000.58 1000.26 1000.57 1000.91 1001.35 1001.45 1000.65 999.13 997.89 996.86 996.46 996.77 996.72 996.70 996.35
1014.81 1014.66 1014.48 1014.39 1014.31 1014.14 1013.99 1013.80 1013.49 1013.26 1012.98 1012.30 1012.02 1012.68 1012.70 1011.74 1008.67 1008.08 1007.34 1006.97 1006.49 1005.93 1005.59 1004.96 1004.60 1004.70 1004.72 1004.75 1004.45 1003.53 1001.91 1000.64 999.92 999.45 999.64 999.87 1000.61 1001.56 1001.00 1000.06 998.48 997.95 997.80 997.67 997.99 997.90 998.03
1014.85 1014.72 1014.62 1014.51 1014.36 1014.16 1013.95 1013.78 1013.49 1013.19 1012.92 1012.40 1011.57 1011.88 1011.89 1011.44 1008.64 1008.01 1007.45 1007.17 1006.62 1006.03 1005.59 1005.24 1005.04 1004.83 1005.13 1004.97 1004.49 1003.55 1002.33 1001.43 1000.40 999.90 999.75 1000.33 1000.78 1001.06 1001.15 1000.71 999.52 999.43 998.64 998.69 998.77 999.81 999.69
1014.84 1014.75 1014.65 1014.53 1014.34 1014.15 1013.90 1013.68 1013.35 1013.08 1012.83 1012.38 1011.70 1011.84 1012.28 1011.21 1008.99 1007.99 1007.54 1007.36 1007.01 1006.54 1006.11 1006.04 1005.65 1005.49 1005.57 1005.68 1005.04 1003.94 1002.69 1001.60 1000.91 1000.26 1000.15 1000.58 1000.81 1000.51 1000.92 1000.78 1000.29 999.82 999.27 999.38 1000.14 1000.24 1000.23
1014.72 1014.67 1014.58 1014.47 1014.27 1014.02 1013.80 1013.53 1013.22 1012.87 1012.68 1012.50 1011.88 1011.91 1012.18 1011.69 1009.37 1008.37 1007.92 1007.47 1007.25 1006.81 1006.89 1006.61 1006.59 1006.78 1006.86 1006.74 1006.00 1004.68 1002.89 1001.60 1000.78 1000.04 1000.02 1000.57 1000.71 1001.02 1000.85 1000.69 1000.98 1000.34 1000.11 1000.33 1000.46 1000.65 1000.68
Thickness
5624 5626 5624 5626 5627 5626 5624 5624 5625 5625 5625 5628 5628 5629 5628 5629 5628 5631 5631 5631 5629 5629 5627 5627 5628 5624 5622 5631 5661 5679 5673 5672 5674 5677 5679 5678 5677 5679 5676 5687 5693 5690 5697 5706 5708 5707 5711
5615 5614 5615 5614 5612 5611 5612 5613 5612 5613 5611 5613 5615 5616 5616 5617 5619 5620 5620 5619 5620 5621 5618 5617 5617 5613 5613 5633 5663 5671 5664 5665 5664 5667 5668 5674 5671 5675 5670 5672 5673 5682 5688 5695 5699 5698 5709
5605 5604 5602 5602 5601 5601 5598 5598 5599 5600 5599 5601 5598 5599 5601 5598 5602 5601 5605 5608 5609 5609 5608 5606 5606 5604 5615 5663 5659 5658 5662 5660 5666 5662 5660 5670 5669 5662 5661 5653 5664 5665 5659 5672 5675 5689 5694
5591 5593 5589 5589 5588 5586 5586 5585 5587 5587 5586 5583 5585 5588 5582 5582 5587 5589 5588 5590 5595 5595 5596 5594 5595 5595 5619 5646 5643 5641 5649 5661 5659 5661 5659 5660 5663 5655 5645 5645 5639 5638 5640 5634 5667 5683 5693
5583 5581 5579 5578 5576 5575 5574 5569 5572 5573 5572 5571 5571 5569 5571 5570 5570 5573 5574 5577 5582 5582 5584 5584 5584 5587 5612 5642 5630 5646 5648 5647 5652 5647 5644 5645 5639 5638 5628 5620 5616 5616 5623 5643 5662 5684 5690
5575 5570 5569 5570 5565 5566 5561 5558 5559 5559 5555 5554 5550 5550 5548 5552 5552 5553 5557 5557 5566 5564 5570 5571 5576 5577 5607 5627 5629 5633 5641 5643 5637 5633 5629 5624 5611 5617 5620 5612 5626 5626 5633 5648 5662 5681 5695
5562 5562 5558 5555 5554 5553 5550 5549 5546 5541 5537 5533 5529 5529 5528 5530 5528 5528 5534 5541 5551 5551 5554 5578 5587 5594 5628 5625 5621 5621 5626 5625 5624 5612 5615 5611 5604 5633 5625 5628 5642 5647 5660 5672 5684 5689 5679
5551 5547 5543 5541 5536 5534 5532 5531 5527 5521 5516 5514 5513 5510 5508 5503 5503 5505 5508 5516 5520 5508 5532 5559 5575 5581 5609 5607 5601 5608 5610 5600 5605 5612 5610 5603 5622 5649 5634 5626 5624 5633 5636 5663 5669 5669 5664
5537 5534 5529 5525 5521 5517 5513 5511 5508 5502 5496 5493 5491 5490 5486 5484 5484 5485 5495 5493 5487 5484 5491 5544 5563 5571 5606 5582 5591 5602 5596 5599 5607 5605 5605 5609 5668 5625 5629 5636 5628 5624 5628 5636 5638 5648 5664
5524 5517 5516 5514 5509 5504 5499 5493 5488 5483 5482 5475 5469 5465 5462 5462 5463 5464 5465 5458 5462 5463 5470 5515 5555 5575 5589 5585 5571 5620 5599 5598 5592 5600 5606 5599 5637 5621 5615 5629 5641 5625 5648 5637 5636 5628 5629
5509 5505 5500 5499 5497 5491 5486 5483 5476 5468 5457 5454 5445 5443 5436 5431 5439 5444 5444 5442 5440 5437 5453 5529 5566 5587 5594 5571 5602 5598 5607 5579 5583 5590 5590 5603 5613 5609 5613 5624 5618 5628 5638 5637 5641 5631 5625
5501 5494 5488 5488 5482 5476 5470 5467 5458 5452 5433 5425 5418 5414 5410 5414 5416 5422 5421 5421 5422 5426 5469 5521 5553 5562 5565 5572 5577 5593 5589 5583 5593 5579 5582 5596 5621 5618 5613 5629 5633 5636 5622 5626 5624 5613 5597
5493 5488 5478 5471 5470 5463 5458 5448 5434 5418 5406 5400 5393 5389 5385 5390 5397 5399 5402 5410 5406 5426 5508 5518 5518 5516 5519 5548 5561 5569 5573 5566 5572 5567 5568 5583 5591 5612 5608 5601 5611 5614 5610 5594 5590 5593 5604
5485 5474 5468 5465 5454 5448 5436 5425 5418 5408 5396 5385 5378 5376 5380 5379 5383 5382 5386 5395 5391 5455 5484 5493 5491 5490 5500 5513 5539 5544 5552 5558 5562 5571 5572 5576 5575 5600 5611 5598 5607 5602 5607 5602 5595 5599 5620
5477 5464 5450 5448 5438 5434 5428 5416 5406 5394 5382 5375 5373 5379 5382 5380 5370 5371 5377 5372 5410 5445 5432 5441 5475 5499 5505 5501 5490 5496 5526 5545 5535 5499 5540 5555 5562 5595 5577 5598 5592 5600 5584 5619 5599 5621 5601
5451 5444 5441 5437 5436 5428 5417 5406 5397 5386 5378 5368 5371 5373 5379 5369 5364 5364 5362 5374 5399 5423 5428 5429 5415 5453 5449 5478 5471 5480 5485 5466 5482 5478 5473 5500 5540 5519 5533 5553 5557 5567 5581 5581 5579 5578 5587
5440 5441 5441 5439 5427 5416 5410 5400 5388 5377 5367 5359 5362 5367 5366 5359 5356 5355 5360 5371 5391 5405 5409 5410 5411 5410 5433 5447 5460 5467 5488 5454 5456 5465 5473 5477 5497 5513 5515 5525 5532 5539 5554 5544 5565 5557 5576
5442 5443 5435 5426 5420 5414 5404 5391 5377 5366 5357 5349 5353 5352 5356 5350 5348 5348 5357 5372 5374 5389 5396 5405 5412 5411 5424 5432 5437 5453 5462 5447 5438 5451 5462 5476 5489 5512 5525 5505 5506 5506 5522 5520 5550 5554 5543
5438 5432 5427 5422 5417 5407 5393 5379 5367 5359 5350 5350 5348 5355 5350 5342 5344 5357 5367 5370 5376 5379 5389 5394 5400 5406 5413 5409 5413 5449 5434 5425 5443 5454 5438 5445 5476 5497 5501 5499 5500 5512 5499 5505 5504 5510 5529
5430 5426 5423 5419 5409 5399 5384 5372 5363 5354 5345 5343 5341 5342 5353 5342 5349 5347 5353 5361 5367 5379 5384 5380 5385 5398 5412 5416 5428 5423 5434 5419 5429 5443 5437 5437 5443 5451 5487 5487 5491 5488 5502 5499 5496 5507 5520
5427 5424 5418 5411 5401 5390 5377 5365 5357 5350 5343 5339 5329 5340 5350 5344 5352 5348 5350 5353 5358 5365 5373 5379 5372 5366 5368 5393 5415 5424 5428 5418 5434 5428 5435 5439 5437 5447 5458 5480 5491 5496 5501 5491 5489 5486 5486
5422 5418 5413 5405 5394 5385 5371 5361 5354 5347 5340 5334 5331 5332 5344 5341 5348 5352 5352 5342 5352 5365 5367 5367 5374 5376 5366 5371 5389 5393 5406 5414 5419 5430 5425 5427 5429 5444 5450 5476 5486 5489 5496 5502 5497 5492 5484
5417 5412 5406 5398 5390 5379 5368 5359 5351 5346 5338 5342 5336 5330 5321 5338 5347 5342 5354 5359 5355 5360 5362 5367 5370 5365 5363 5373 5381 5395 5399 5405 5410 5412 5417 5421 5427 5428 5448 5471 5471 5460 5473 5488 5496 5500 5496
5410 5405 5400 5394 5385 5375 5365 5356 5350 5346 5340 5338 5335 5326 5322 5337 5345 5343 5354 5359 5360 5359 5353 5362 5365 5362 5374 5371 5384 5393 5400 5406 5410 5415 5420 5404 5403 5424 5438 5457 5442 5486 5484 5488 5487 5491 5498
5403 5400 5396 5388 5380 5371 5362 5354 5349 5345 5342 5341 5334 5323 5320 5336 5346 5348 5345 5346 5350 5350 5351 5361 5367 5369 5370 5370 5368 5380 5399 5409 5420 5427 5425 5428 5420 5412 5423 5451 5473 5483 5482 5472 5473 5481 5485
5398 5395 5390 5384 5376 5369 5360 5352 5347 5343 5340 5342 5339 5327 5319 5321 5352 5347 5345 5344 5343 5348 5352 5361 5368 5370 5372 5368 5365 5362 5388 5412 5417 5427 5434 5435 5429 5408 5420 5424 5443 5457 5458 5461 5457 5455 5457
5393 5390 5385 5379 5373 5366 5359 5351 5345 5341 5339 5340 5342 5333 5328 5323 5351 5348 5343 5339 5345 5349 5350 5356 5359 5362 5363 5362 5363 5374 5385 5403 5402 5411 5422 5409 5408 5403 5407 5411 5439 5435 5445 5447 5433 5425 5431
5389 5385 5381 5375 5370 5364 5358 5351 5345 5340 5337 5338 5339 5333 5324 5329 5347 5349 5347 5340 5340 5345 5346 5348 5355 5352 5357 5350 5361 5369 5382 5394 5399 5412 5409 5401 5396 5410 5410 5406 5409 5428 5433 5428 5418 5419 5421
5385 5382 5378 5373 5368 5363 5357 5351 5345 5340 5337 5334 5334 5331 5325 5321 5341 5345 5343 5343 5342 5344 5340 5344 5344 5340 5340 5345 5349 5365 5383 5398 5404 5404 5416 5397 5404 5390 5397 5397 5401 5414 5415 5416 5415 5411 5410